This is the latest recevied weather packets stored in our database for station/object NT9G. If no packets are shown the sender has not sent any weather packets the latest 10 day(s).
| Time | Temp. | Humidity | Pressure | Rain* | Wind** | Luminosity | Snow |
|---|---|---|---|---|---|---|---|
| 1777153305 | 22.78° C | 35% | 1013.4 hPa | 0 mm | - | - | - |
| 1777153004 | 22.78° C | 35% | 1013.4 hPa | 0 mm | - | - | - |
| 1777152704 | 23.33° C | 34% | 1013.4 hPa | 0 mm | - | - | - |
| 1777151503 | 23.33° C | 31% | 1013.5 hPa | 0 mm | - | - | - |
| 1777151203 | 23.89° C | 33% | 1013.5 hPa | 0 mm | - | - | - |
| 1777150602 | 23.33° C | 32% | 1013.7 hPa | 0 mm | - | - | - |
| 1777150302 | 23.33° C | 33% | 1013.7 hPa | 0 mm | - | - | - |
| 1777150002 | 23.33° C | 34% | 1013.8 hPa | 0 mm | - | - | - |
| 1777149701 | 23.33° C | 33% | 1013.7 hPa | 0 mm | - | - | - |
| 1777149401 | 22.78° C | 31% | 1013.7 hPa | 0 mm | - | - | - |
| 1777149101 | 22.78° C | 33% | 1013.7 hPa | 0 mm | - | - | - |
| 1777148800 | 22.78° C | 31% | 1013.9 hPa | 0 mm | - | - | - |
| 1777148500 | 22.78° C | 34% | 1013.9 hPa | 0 mm | - | - | - |
| 1777148200 | 23.33° C | 33% | 1013.9 hPa | 0 mm | - | - | - |
| 1777147899 | 22.78° C | 32% | 1014 hPa | 0 mm | - | - | - |
| 1777147599 | 23.33° C | 33% | 1014.1 hPa | 0 mm | - | - | - |
| 1777147299 | 22.78° C | 32% | 1014.1 hPa | 0 mm | - | - | - |
| 1777146999 | 23.33° C | 33% | 1014.2 hPa | 0 mm | - | - | - |
| 1777146398 | 23.89° C | 32% | 1014.2 hPa | 0 mm | - | - | - |
| 1777146098 | 23.89° C | 32% | 1014.3 hPa | 0 mm | - | - | - |
| 1777145798 | 23.89° C | 33% | 1014.3 hPa | 0 mm | - | - | - |
| 1777145497 | 23.33° C | 37% | 1014.3 hPa | 0 mm | - | - | - |
| 1777145197 | 22.78° C | 35% | 1014.4 hPa | 0 mm | - | - | - |
| 1777144897 | 22.22° C | 35% | 1014.4 hPa | 0 mm | - | - | - |
| 1777144296 | 22.78° C | 35% | 1014.4 hPa | 0 mm | - | - | - |
* Rain since midnight (hover to see other rain measurements)
** Current wind speed in m/s (hover to see current wind gust speed)